Location: Créteil
(48.7927°N, 2.4657°E)
Time: 14:02:55
(UTC+00:00)

Daily predictions for brighter satellites

Satellite Brightness Start Highest point End
(mag) Time Altitude Azimuth Time Altitude Azimuth Time Altitude Azimuth
Meteor 2-3 Rocket 3.8 19:42:51 10° N 19:48:27 63° ENE 19:54:02 10° SSE
CZ-4C R/B 2.4 19:46:12 10° S 19:49:48 30° ESE 19:54:10 10° NE
Cosmos 2084 4.0 19:47:24 10° SW 19:51:30 62° NW 19:55:38 10° NE
Cosmos 292 Rocket 3.8 19:46:49 10° NNW 19:51:36 68° ENE 19:56:19 10° SSE
CSL-04 Rocket 4.3 19:47:16 10° S 19:52:43 61° WSW 19:58:08 10° NNW
Cosmos 1833 Rocket 2.7 19:47:23 10° SSW 19:52:58 78° ESE 19:58:37 10° NNE
CZ-4B DEB 4.3 19:47:40 10° SSE 19:53:12 90° WSW 19:58:46 10° NNW
ATLAS 2AS CENTAUR R/B 2.9 19:47:14 10° SW 19:54:13 82° NW 20:01:06 10° NE
CZ-4B R/B 3.4 19:50:03 10° SSE 19:55:41 71° ENE 20:01:18 10° NNW
Okean-O 3.4 19:53:42 10° SE 19:57:42 36° ENE 20:01:43 10° N
Cosmos 1892 Rocket 4.5 19:53:48 10° N 19:57:42 32° ENE 20:01:34 10° SE
USA 305 3.6 19:57:01 10° WNW 20:00:55 43° NNE 20:04:36 10° E
Cosmos 1455 Rocket 4.0 19:57:55 10° SSE 20:01:45 30° E 20:05:35 10° NNE
Gbstr 26 Del rocket 3.3 19:56:27 10° WNW 20:01:53 83° NNE 20:06:17 10° ESE
SL-4 R/B 2.7 19:58:56 10° WNW 20:02:31 40° SSW 20:06:11 10° SE
Spot 2 Rocket 3.9 19:58:34 10° SE 20:03:22 49° ENE 20:08:13 10° N
MetOp-B 4.2 19:58:15 10° SSE 20:03:37 84° ENE 20:09:00 10° NNW
Cosmos 2173 Rocket 4.0 20:02:37 10° S 20:08:40 68° E 20:14:50 10° NNE
Okean 1 Rocket 3.1 20:04:24 10° S 20:08:44 67° E 20:13:08 10° NNE
ADEOS 3.6 20:04:12 10° SSE 20:09:24 83° ENE 20:14:39 10° NNW
Helios 1A Rocket 2.4 20:12:15 10° NNE 20:15:25 76° WNW 20:18:33 10° SSW
ERS-1 Rocket 3.6 20:19:23 10° S 20:24:18 57° W 20:29:16 10° NNW
SKYMED 3 4.3 20:21:06 10° NNE 20:25:04 87° ESE 20:29:02 10° SSW
SJ 16-02 4.2 20:25:45 10° WNW 20:27:11 12° W 20:28:37 10° WSW
ATLAS 3B R/B 3.2 20:20:17 10° NW 20:28:02 69° SW 20:34:58 11° SSE
Cosmos 2369 4.3 20:22:54 10° NNW 20:28:25 46° NE 20:33:06 14° ESE
Cosmos 2322 Rocket 4.2 20:24:55 10° N 20:28:35 17° NE 20:32:15 10° ENE
DEBRIS 2.9 20:28:10 10° WSW 20:30:51 66° SSE 20:37:49 10° ENE
Cosmos 1452 Rocket 3.5 20:26:14 10° S 20:31:22 61° ESE 20:36:32 10° NNE
Cosmos 2082 Rocket 2.8 20:26:16 10° S 20:31:23 35° ESE 20:36:31 10° NE
Cosmos 1741 Rocket 4.1 20:26:28 10° NNW 20:31:49 87° WSW 20:36:43 12° SSE
SL-08 R/B 3.3 20:28:35 10° NNE 20:33:28 83° ESE 20:38:14 10° SSW
Sich 1 Rocket 3.7 20:31:59 10° SSW 20:36:20 75° W 20:40:43 10° N
Cosmos 968 Rocket 4.3 20:32:10 10° NNW 20:37:13 49° WSW 20:42:14 10° S
Cosmos 1331 Rocket 4.0 20:33:00 10° SSW 20:38:15 87° WNW 20:43:31 10° NNE
Cosmos 1802 Rocket 3.9 20:32:07 10° S 20:38:18 79° E 20:44:28 10° NNE
YAOGAN 11 4.1 20:35:29 10° NNE 20:39:53 65° ESE 20:44:18 10° S
CZ-4B R/B 3.9 20:36:55 16° SE 20:40:22 42° ENE 20:44:53 10° N
Cosmos 1302 Rocket 4.1 20:42:40 10° S 20:47:39 51° ESE 20:52:40 10° NNE
Cosmos 1697 Rocket 3.9 20:45:12 10° NW 20:50:16 36° WSW 20:55:19 10° S
MOS 1-B 4.5 20:44:43 11° SSE 20:50:20 78° WSW 20:56:11 10° NNW
CZ-2C R/B 3.4 20:49:47 20° E 20:50:36 24° ENE 20:52:56 10° NNE
Cosmos 2151 4.1 20:48:16 10° NNE 20:51:49 27° ENE 20:53:43 19° ESE
Meteor 2-12 Rocket 4.4 20:46:25 10° N 20:52:32 79° E 20:57:39 15° SSE
Terra 3.2 20:48:23 10° SSW 20:52:38 34° W 20:56:57 10° NNW
NOSS 3-3 (A) 4.1 20:49:05 10° S 20:53:43 36° ESE 20:59:07 10° NE
Cosmos 1459 Rocket 4.5 20:48:44 10° SSW 20:54:55 63° WNW 21:01:03 10° N
SL-16 R/B 3.2 20:51:23 10° NNW 20:56:35 35° NE 21:00:34 16° ESE
COSMOS 2406 4.2 20:54:43 19° SE 20:57:32 28° ESE 21:02:21 10° NE
Cosmos 1743 2.9 20:58:19 10° NNW 21:01:14 46° W 21:03:16 17° SSW
Cosmos 2228 2.8 20:58:22 14° S 21:01:53 77° E 21:05:59 10° NNE
USA 186 2.5 21:00:42 18° SSW 21:02:18 38° W 21:04:53 10° NNW
USA 306 3.5 20:59:37 10° SSW 21:00:59 19° SSW 21:00:59 19° SSW
Cosmos 1782 2.5 21:00:48 13° SSW 21:03:52 80° W 21:07:24 10° N
SPOT 3 Rocket 3.5 21:02:10 19° SSE 21:05:52 83° ENE 21:11:03 10° NNW
Cosmos 44 Rocket 3.7 21:05:14 10° SW 21:10:18 71° NW 21:15:31 10° NE
Cosmos 2333 Rocket 3.1 21:06:41 10° NNW 21:12:02 40° NE 21:15:41 19° ESE
Cosmos 1626 Rocket 3.7 21:08:13 10° N 21:12:32 60° ENE 21:14:41 28° SSE
Cosmos 1607 3.8 21:08:52 10° SSW 21:15:00 76° SE 21:21:16 10° NE
CZ-4B R/B 2.4 21:13:30 30° S 21:15:03 77° WSW 21:18:28 10° NNW
Cosmos 1980 Rocket 2.9 21:13:35 10° NW 21:19:01 47° WSW 21:23:05 17° S
Okean O Rocket 2.9 21:15:58 11° SSW 21:19:41 35° W 21:23:39 10° NNW
ISS -3.9 21:17:16 10° WSW 21:20:36 77° SSE 21:23:57 10° ENE
Cosmos 2233 Rocket 4.1 21:14:57 10° SSW 21:21:11 81° W 21:27:24 10° N
Helios 1B rocket 4.2 21:21:08 13° E 21:22:07 14° ENE 21:24:04 10° NNE
NOSS 3-3 (C) 3.9 21:17:31 12° SSW 21:22:09 48° ESE 21:28:00 10° NE
USA 305 2.4 21:22:26 10° WNW 21:26:31 72° SSW 21:27:30 45° SE
Cosmos 1933 3.6 21:27:23 37° SE 21:28:12 43° E 21:31:50 10° NNE
IRS-1C Rocket 4.1 21:25:22 24° S 21:28:37 81° WSW 21:33:56 10° NNW
Geosat 4.4 21:26:08 10° NE 21:30:53 42° ESE 21:32:49 30° SSE
Tsikada Rocket 4.3 21:25:42 10° NNW 21:31:46 62° W 21:36:32 17° S
Okean-O 4.3 21:30:20 10° SSW 21:34:02 27° W 21:37:47 10° NW
Ariane Rocket 3.1 21:33:20 25° S 21:36:15 70° WSW 21:41:20 10° NNW
NOSS 3-4 (A) 4.3 21:30:08 10° NW 21:36:27 51° NE 21:42:12 17° ESE
Cosmos 2098 Rocket 3.9 21:34:55 31° SE 21:36:30 40° E 21:40:47 10° NNE
NOSS 3-4 (C) 4.4 21:30:45 10° NW 21:37:04 51° NE 21:42:51 17° ESE
CZ-4C R/B 3.0 21:33:25 10° WSW 21:37:39 46° NW 21:43:06 10° NE
Nadezhda 4 Rocket 4.4 21:33:13 10° N 21:39:07 48° ENE 21:42:00 28° SE
Cosmos 2360 Rocket 3.0 21:40:01 10° NNW 21:45:23 41° NE 21:48:24 23° ESE
Cosmos 2084 Rocket 3.7 21:41:47 10° NW 21:45:53 54° SW 21:47:04 40° S
Gbstr 26 Del rocket 4.0 21:43:38 10° WNW 21:47:48 30° SW 21:48:34 28° SSW
Cosmos 1461 4.2 21:50:45 21° ENE 21:50:45 21° ENE 21:52:29 10° ENE
Cosmos 1437 Rocket 2.3 21:48:45 59° SSE 21:49:20 77° E 21:52:54 10° NNE
Cosmos 1544 Rocket 3.6 21:49:37 30° SSW 21:51:45 76° W 21:56:06 10° N
USA 234 3.8 21:50:48 10° ENE 21:56:35 33° SE 21:57:36 31° SSE
Cosmos 2219 Rocket 3.3 21:56:58 10° NNW 22:02:12 36° NE 22:05:14 21° ESE
DNEPR-1 R/B 4.5 21:59:51 10° NW 22:05:12 67° NE 22:08:22 30° ESE
Cosmos 1805 2.7 22:02:03 10° N 22:05:16 77° ENE 22:05:16 77° ENE
BREEZE-M DEB (TANK) 3.4 22:03:50 10° W 22:04:53 20° W 22:04:53 20° W
Cosmos 1758 Rocket 4.5 22:02:53 10° NNW 22:07:02 42° W 22:08:49 28° SW
Cosmos 1777 Rocket 4.2 22:04:10 10° NNW 22:09:23 63° ENE 22:11:10 40° SE
Cosmos 1992 Rocket 4.4 22:05:20 13° SW 22:09:54 60° WNW 22:15:04 10° NNE
Cosmos 909 Rocket 4.3 22:04:12 10° SW 22:10:30 71° NW 22:17:02 10° NE
Cosmos 1503 Rocket 4.4 22:05:26 10° NNW 22:10:31 51° ENE 22:12:20 35° ESE
Cosmos 2322 Rocket 2.3 22:08:04 10° NNW 22:13:44 67° ENE 22:15:56 37° SE
Cosmos 2082 Rocket 3.2 22:09:52 10° SW 22:15:20 45° NW 22:20:50 10° NNE
Cosmos 1536 4.4 22:12:52 10° NNE 22:15:43 21° ENE 22:15:51 21° ENE
Cosmos 1464 Rocket 3.9 22:18:24 35° S 22:21:14 87° E 22:27:26 10° N
CZ-2C R/B 4.4 22:21:24 16° W 22:21:24 16° W 22:23:12 10° NW
Cosmos 1486 Rocket 3.9 22:17:12 10° NNW 22:22:29 89° ENE 22:24:02 48° SSE
Cosmos 1825 Rocket 3.4 22:18:36 10° N 22:22:57 85° E 22:23:40 62° SSE
Cosmos 1375 Rocket 4.4 22:18:44 23° SSW 22:23:04 78° ESE 22:29:39 10° NE
Cosmos 1953 Rocket 3.8 22:21:04 10° N 22:25:22 53° ENE 22:25:57 49° ESE
Meteor 1-5 Rocket 4.3 22:20:25 10° NNW 22:26:05 77° W 22:28:14 41° S
ALOS 2 3.6 22:27:20 31° E 22:28:16 34° ENE 22:32:13 10° N
Cosmos 2058 Rocket 4.0 22:28:26 32° E 22:28:27 32° E 22:32:20 10° NNE
ARIANE 5 R/B 3.4 22:27:36 36° E 22:28:28 41° ENE 22:32:39 10° N
Cosmos 2151 4.3 22:24:57 10° NNW 22:28:34 30° W 22:29:47 25° WSW
Spot 4 4.5 22:28:39 36° ESE 22:29:50 44° ENE 22:34:23 10° N
Cosmos 220 Rocket 3.7 22:29:24 69° SSW 22:29:53 88° WNW 22:33:59 10° NNE
Cosmos 1602 Rocket 4.5 22:28:25 10° NNW 22:32:26 39° W 22:33:31 33° SW
Cosmos 2278 3.8 22:28:18 10° NNW 22:34:00 68° WSW 22:35:41 45° S
CSL-04 DEB 4.0 22:34:56 76° NE 22:34:56 76° NE 22:38:25 10° NNW
SL-16 R/B 2.7 22:35:24 10° NW 22:40:50 48° WSW 22:42:24 38° SSW
COSMOS 2406 3.8 22:36:39 14° SW 22:41:29 56° WNW 22:47:09 10° NNE
Cosmos 1092 Rocket 4.0 22:37:26 10° N 22:43:36 70° E 22:45:38 43° SSE
Helios 1A 3.1 22:39:56 10° N 22:43:48 61° WNW 22:44:23 53° WSW
CZ-2C R/B 3.7 22:45:29 10° NNE 22:49:53 61° ESE 22:50:07 60° ESE
Cosmos-2242 2.9 22:51:19 63° E 22:51:19 63° E 22:55:21 10° NNE
Aureole 1 Rocket 4.3 22:46:07 10° NNW 22:51:20 53° ENE 22:53:46 34° ESE
Okean 1 3.5 22:53:47 54° WNW 22:53:47 54° WNW 22:57:12 10° N
Helios 1B rocket 2.7 22:55:06 48° WNW 22:55:06 48° WNW 22:58:09 10° NNW
Cosmos 2034 Rocket 4.0 22:53:27 39° SSW 22:56:02 79° W 23:02:26 10° N
Cosmos 2333 Rocket 2.9 22:51:03 10° NW 22:56:21 41° WSW 22:57:41 36° SW
Cosmos 1271 Rocket 4.4 22:58:25 20° ENE 22:58:25 20° ENE 23:00:06 10° NE
ISS -2.9 22:54:16 10° W 22:57:24 50° NNW 22:57:24 50° NNW
CZ-2C R/B 3.9 22:56:33 23° E 22:58:40 30° ENE 23:03:11 10° N
Cosmos 1707 3.9 23:02:42 28° NNE 23:02:42 28° NNE 23:04:12 10° NNE
Cosmos 1975 4.2 22:59:03 10° NNE 23:02:05 26° ENE 23:02:05 26° ENE
Cosmos 1833 4.1 23:04:37 54° S 23:05:52 72° ESE 23:11:30 10° NNE
Meteor 2-2 Rocket 4.1 23:09:39 54° S 23:11:02 83° E 23:16:48 10° NNE
Cosmos 468 Rocket 4.3 23:11:08 48° ESE 23:11:33 49° ESE 23:16:38 10° NNE
Cosmos 2221 3.5 23:14:13 33° E 23:14:13 33° E 23:17:43 10° NNE
Cosmos 2297 Rocket 4.1 23:18:41 15° ESE 23:19:02 15° E 23:22:07 10° ENE
Cosmos 2322 4.3 23:13:39 10° NNW 23:19:13 50° NE 23:21:36 31° ESE
Cosmos 540 Rocket 3.4 23:18:15 58° SSW 23:19:17 85° WNW 23:24:28 10° NNE
Cosmos 1726 Rocket 4.5 23:19:43 33° W 23:20:20 35° WNW 23:24:05 10° N
Cosmos 1634 Rocket 3.9 23:22:44 48° SSW 23:24:37 83° W 23:30:51 10° N
Cosmos 1461 4.1 23:24:21 28° WNW 23:25:27 34° NW 23:28:51 10° NNE
Cosmos 2279 Rocket 4.0 23:25:15 50° SSE 23:26:58 75° E 23:33:15 10° NNE
NOSS 3-4 (A) 4.1 23:20:56 10° NW 23:27:31 52° WSW 23:29:36 41° SSW
NOSS 3-4 (C) 4.1 23:21:33 10° NW 23:28:09 52° WSW 23:30:15 41° SSW
Cosmos 1898 Rocket 3.9 23:24:05 10° NNW 23:29:11 56° ENE 23:30:35 42° ESE
Cosmos 2360 Rocket 2.9 23:24:07 10° NW 23:29:21 39° WSW 23:30:08 37° SW
RESURS DK-1 3.4 23:27:47 10° NNW 23:31:30 36° NE 23:32:11 33° ENE
USA 290 3.9 23:35:47 29° NW 23:35:47 29° NW 23:38:13 10° N
NOSS 0 Rocket 4.5 23:33:49 10° NNW 23:39:52 53° NE 23:43:09 27° ESE
USA 234 3.2 23:33:31 10° NE 23:40:06 89° NNW 23:44:54 20° WSW
Meteor 1-11 Rocket 4.0 23:36:36 10° N 23:42:16 58° ENE 23:43:52 43° SE
Cosmos 1763 Rocket 4.2 23:43:38 34° WSW 23:45:33 49° WNW 23:50:42 10° NNE
Cosmos 2219 Rocket 2.6 23:40:53 10° NW 23:46:15 45° WSW 23:46:54 43° SW
ARGOS Delta rocket 4.2 23:41:28 10° N 23:46:27 65° WNW 23:47:34 51° SW
Cosmos 1812 Rocket 3.7 23:48:46 59° E 23:48:48 59° E 23:53:08 10° NNE
BREEZE-M DEB (TANK) 4.0 23:35:40 10° WSW 23:50:30 89° SSE 23:54:13 10° ENE
Cosmos 1536 4.1 23:47:43 10° NNW 23:50:22 29° WNW 23:50:22 29° WNW
Cosmos 1842 4.3 23:55:54 33° NNW 23:55:54 33° NNW 23:58:02 10° N
Intercosmos 24 4.5 23:51:39 10° N 23:55:49 45° ENE 23:55:56 45° E
Cosmos 1470 3.7 23:53:10 10° NNW 23:55:21 35° NW 23:55:21 35° NW
